Regional Weather Roundup
Issued by NWS

Home | Current Version | Previous Version | Text Only | Print | Product List | Glossary On
Versions: 1 2 3 4 5 6 7 8 9 10 11 12 13 14 15 16 17 18 19 20 21 22 23 24 25 26 27 28 29 30 31 32 33 34 35 36 37 38 39 40 41 42 43 44 45 46 47 48 49 50
000
ASUS43 KDMX 170806
RWRIA

WEATHER ROUNDUP FOR IOWA
NATIONAL WEATHER SERVICE DES MOINES IA
300 AM CDT THU AUG 17 2017

NOTE: "FAIR" INDICATES FEW OR NO CLOUDS BELOW 12,000 FEET WITH NO
SIGNIFICANT WEATHER AND/OR OBSTRUCTIONS TO VISIBILITY.

* - THESE STATIONS ARE NOT NWS STATIONS...THUS NOT UNDER NWS
QUALITY CONTROL.  THEY ALSO DO NOT REPORT WEATHER SUCH
AS PRECIPITATION OR FOG.

IAZ001>003-012>014-020>022-031>034-043>046-170900-
   NORTHWEST IOWA

CITY           SKY/WX    TMP DP  RH WIND       PRES   REMARKS
CARROLL *      CLOUDY    66  64  94 SW8       29.76R
CHEROKEE *     CLOUDY    66  66  98 W9        29.74S
DENISON *      CLOUDY    64  63  94 W10       29.79S
LE MARS *      CLOUDY    68  64  88 W10G16    29.76R
ORANGE CITY *  CLOUDY    66  66 100 W10G17    29.75R
SHELDON *      CLOUDY    66  64  94 W10G16    29.71F
SIOUX CITY     CLOUDY    68  65  90 W13G18    29.78R
SPENCER        MOCLDY    66  64  93 W12       29.71S
STORM LAKE *   CLOUDY    64  64 100 W13       29.75R
$$

IAZ055>058-069>071-079>083-090>094-170900-
   SOUTHWEST IOWA

CITY           SKY/WX    TMP DP  RH WIND       PRES   REMARKS
ATLANTIC *     CLEAR     64  63  94 W8        29.80F
AUDUBON *      CLOUDY    64  61  88 W7        29.79F
CLARINDA *     MOCLDY    64  63  94 W9        29.85S
COUNCIL BLFS * CLEAR     64  64 100 W12G17    29.82F
CRESTON *      CLEAR     64  64 100 W10       29.82S
HARLAN  *      MOCLDY    64  63  94 W14G20    29.83S
LAMONI         CLOUDY    67  65  93 W7        29.80F
RED OAK *      CLEAR     64  63  94 W7        29.83S
SHENANDOAH *   CLEAR     63  63 100 CALM      29.84F
$$

IAZ047>049-059>061-072>074-084-170900-
   CENTRAL IOWA

CITY           SKY/WX    TMP DP  RH WIND       PRES   REMARKS
AMES           CLOUDY    67  66  97 W13       29.74S
ANKENY *       CLEAR     68  64  88 W10G16    29.76S
BOONE *        CLOUDY    66  63  88 W9        29.74S
CHARITON *     CLOUDY    68  64  88 SW6       29.78S
DES MOINES     CLEAR     68  65  90 W9        29.75S
GRINNELL*      PTCLDY    66  64  90 CALM      29.76F
KNOXVILLE *    CLOUDY    68  64  88 SW5       29.75F
NEWTON *       PTCLDY    66  64  94 S6        29.75F
PELLA *        CLOUDY    69  65  85 SW3       29.77S
PERRY *          N/A     65  64  97 W8        29.76S
$$

IAZ004>006-015-016-023>025-035-036-170900-
   NORTH CENTRAL IOWA

CITY           SKY/WX    TMP DP  RH WIND       PRES   REMARKS
ALGONA *       CLOUDY    66  66 100 W10       29.69S
CLARION *      CLOUDY    66  66 100 W14       29.70F
ESTHERVILLE    CLOUDY    65  64  97 W10       29.67S
FORT DODGE *   CLOUDY    66  63  88 W13       29.73S
MASON CITY     CLOUDY    67  64  90 SW14      29.68S
FOREST CITY *  CLOUDY    68  64  88 SW10      29.67S
WEBSTER CITY * CLOUDY    68  64  88 W10G17    29.70S
IOWA FALLS *   CLOUDY    67  64  90 SW12      29.73S
$$

IAZ007>011-017>019-026>030-037>042-050>054-066-170900-
   NORTHEAST IOWA

CITY           SKY/WX    TMP DP  RH WIND       PRES   REMARKS
CHARLES CITY * CLOUDY    66  66 100 SW9       29.69F
CLINTON *      CLOUDY    72  70  93 SW9       29.75S
DECORAH *      CLOUDY    68  64  88 VRB6G13   29.68F
MONTICELLO *   CLOUDY    73  70  88 W7        29.73R
OELWEIN *      CLOUDY    66  66 100 SW7       29.72F
$$

IAZ064-065-067-068-078-170900-
   EAST CENTRAL IOWA

CITY           SKY/WX    TMP DP  RH WIND       PRES   REMARKS
MT. PLEASANT * CLOUDY    72  71  97 SW12      29.77S
MUSCATINE *    CLOUDY    73  70  88 SW10      29.75S
$$

IAZ062-063-075>077-085>089-095>099-170900-
   SOUTHEAST IOWA

CITY           SKY/WX    TMP DP  RH WIND       PRES   REMARKS
BURLINGTON     CLOUDY    73  71  93 S10       29.78S
FAIRFIELD *    CLOUDY    73  72  94 SW8       29.77S
FORT MADISON * CLOUDY    73  72  94 S10       29.79S
KEOKUK *       MOCLDY    72  70  94 S10G17    29.79S
OSKALOOSA *      N/A     68  66  93 SW3       29.77F
CENTERVILLE *    N/A     70  70 100 CALM      29.81S
OTTUMWA        MOCLDY    72  69  90 SW6       29.76F
WASHINGTON *   MOCLDY    73  73 100 SW9       29.76F
$$

ABBREVIATIONS USED IN REMARKS
   TC - TEMPERATURES IN CELSIUS
  WCI - WIND CHILL INDEX
   HX - HEAT INDEX
  VSB - VISIBILITY
$$





USA.gov is the U.S. government's official web portal to all federal, state and local government web resources and services.